Location: Bourg-Saint-And�ol
(44.3757°N, 4.6427°E)
Time: 11:27:16
(UTC+00:00)

Daily predictions for brighter satellites

Satellite Brightness Start Highest point End
(mag) Time Altitude Azimuth Time Altitude Azimuth Time Altitude Azimuth
NOSS 3-1 (C) 4.1 17:04:44 10° NW 17:12:11 68° NE 17:20:50 10° SE
COSMO-SKYMED 1 3.4 17:10:43 10° NNE 17:14:36 31° E 17:18:27 10° SSE
Cosmos 1937 Rocket 4.0 17:10:04 10° S 17:15:00 41° ESE 17:19:58 10° NE
Okean 1-7 Rocket 3.9 17:12:26 10° SSW 17:16:59 77° W 17:21:35 10° N
OE (NEXTSAT) 4.4 17:14:16 10° WNW 17:17:44 82° SSW 17:21:09 10° ESE
Aureole 3 2.5 17:14:50 10° N 17:17:52 63° E 17:20:49 10° SSE
USA 290 3.6 17:19:28 10° NNE 17:21:48 19° ENE 17:24:09 10° ESE
NOSS 2-1 (C) 3.0 17:19:37 10° SW 17:22:57 76° NW 17:26:23 10° NE
Cosmos 1833 Rocket 3.2 17:20:28 10° NNW 17:25:41 37° NE 17:30:53 10° ESE
H-2A R/B 2.9 17:23:33 10° ESE 17:27:42 26° ENE 17:31:58 10° N
Lacrosse 5 4.3 17:23:35 10° WNW 17:27:48 27° SW 17:32:01 10° S
Meteor 1-21 Rocket 4.2 17:23:02 10° S 17:28:34 83° E 17:34:11 10° NNE
NOSS 2-1 (D) 3.2 17:25:35 10° SW 17:28:55 64° NW 17:32:19 10° NNE
Cosmos 1939 Rocket 2.9 17:25:44 10° SSE 17:29:46 65° ENE 17:33:47 10° N
Helios 1A Rocket 4.4 17:27:30 10° ESE 17:30:19 18° ENE 17:33:07 10° NNE
H-2A R/B 2.4 17:27:31 10° N 17:31:54 69° WNW 17:36:07 10° SSW
Cosmos 2344 4.4 17:22:55 10° NW 17:32:00 60° NE 17:44:35 10° SE
Cosmos 1602 Rocket 3.6 17:28:30 10° S 17:32:47 61° E 17:37:08 10° NNE
Cosmos 44 4.0 17:28:08 10° SW 17:32:52 56° NW 17:37:57 10° NNE
USA 229 DEB 3.9 17:26:22 10° NW 17:33:39 67° NE 17:41:18 10° SE
USA 229 3.9 17:26:28 10° NW 17:33:45 66° NE 17:41:25 10° SE
Cosmos 2026 Rocket 4.2 17:28:09 10° SSE 17:34:00 49° E 17:40:00 10° NNE
CZ-3B R/B 2.3 17:32:08 10° NW 17:34:42 46° NE 17:41:46 10° ESE
Feng Yun 1-1 Rocket 4.2 17:29:43 10° SSE 17:35:06 62° ENE 17:40:40 10° N
SeaSat 1 4.3 17:31:15 10° N 17:35:23 27° NW 17:39:29 10° WSW
SJ 16-02 2.9 17:31:56 10° SW 17:35:58 35° WNW 17:40:01 10° N
CSL-04 DEB 4.3 17:32:26 10° NNE 17:36:33 69° ESE 17:40:31 10° S
Cosmos 2112 Rocket 4.1 17:33:16 10° NNW 17:38:32 87° WSW 17:43:43 10° SSE
YAOGAN 1 3.4 17:35:29 10° SE 17:39:12 29° ENE 17:42:55 10° N
Cosmos 990 Rocket 4.2 17:34:08 10° SSW 17:39:20 78° WNW 17:44:32 10° NNE
H-2A R/B 4.3 17:37:22 10° SSW 17:41:12 37° W 17:45:13 10° NNW
Cosmos 1844 Rocket 4.1 17:36:01 10° WSW 17:41:14 38° NW 17:46:30 10° NNE
Cosmos 1689 Rocket 3.5 17:41:34 16° ENE 17:42:24 18° E 17:44:28 10° SE
Aureole 3 Rocket 2.9 17:40:25 10° N 17:43:37 44° E 17:47:35 10° SSE
COSMOS 2406 3.3 17:39:27 10° NNW 17:45:11 59° ENE 17:50:51 10° SE
Cosmos 2082 Rocket 3.0 17:40:22 10° N 17:45:26 31° NE 17:50:26 10° ESE
Cosmos 1703 3.4 17:42:57 10° SSW 17:46:49 77° W 17:50:43 10° N
Cosmos 1825 Rocket 4.1 17:43:55 10° SSE 17:47:54 35° E 17:51:55 10° NNE
IRS-1C Rocket 4.1 17:43:28 10° SSE 17:48:37 59° ENE 17:53:48 10° N
X-37B 0.6 17:46:09 10° W 17:49:20 85° SSW 17:51:36 18° ESE
NOSS 3-1 (A) 4.1 17:41:50 10° NW 17:49:21 72° NE 17:58:04 10° SE
ISS -2.1 17:49:18 10° WNW 17:52:06 23° N 17:53:50 16° NE
Cosmos 1812 Rocket 3.5 17:48:30 10° N 17:52:54 87° E 17:57:14 10° S
Okean O Rocket 3.1 17:50:24 10° S 17:54:34 40° W 17:58:45 10° NNW
CZ-4 R/B 1.5 17:54:52 10° SSE 17:58:46 51° ENE 18:02:38 10° N
Iridium 4 Rocket 3.4 17:55:54 10° N 18:01:16 70° E 18:06:06 10° S
ERS-2 2.2 17:59:12 10° NNE 18:02:47 54° ESE 18:06:20 10° S
SKYMED 2 3.7 17:58:26 10° N 18:02:48 81° WNW 18:07:08 10° SSW
CSL-04 Rocket 4.2 17:58:19 10° SE 18:03:15 36° ENE 18:08:15 10° N
Okean-O 2.6 18:01:56 10° SSE 18:06:15 56° ENE 18:10:37 10° N
S3M 4.3 18:03:38 10° N 18:09:21 40° ENE 18:15:03 10° SE
USA 234 4.4 18:05:52 15° NE 18:10:12 29° N 18:15:40 10° WNW
Cosmos 1340 3.7 18:06:47 10° SSW 18:10:24 47° WNW 18:14:04 10° N
Cosmos 1346 Rocket 2.7 18:07:00 10° S 18:10:52 63° E 18:14:46 10° NNE
Cosmos 1655 Rocket 4.4 18:05:37 10° SSE 18:11:13 37° E 18:16:50 10° NNE
Cosmos 2278 Rocket 2.1 18:05:34 10° SSW 18:11:14 79° ESE 18:16:56 10° NNE
Cosmos 1953 Rocket 3.8 18:10:13 10° SSE 18:14:20 44° E 18:17:58 13° NNE
CZ-2C R/B 3.4 18:09:18 10° S 18:14:45 76° WSW 18:20:31 10° NNW
SWARM A 4.3 18:13:56 10° SSE 18:17:09 51° E 18:18:52 24° NNE
Cosmos 2292 Rocket 3.9 18:14:27 10° SSE 18:19:07 42° E 18:20:41 29° NE
Cosmos 1892 4.4 18:16:10 10° SSE 18:17:22 17° SE 18:17:22 17° SE
SAR-Lupe-4 3.4 18:17:50 15° NNE 18:20:43 73° ESE 18:24:17 10° S
Cosmos 44 Rocket 3.6 18:16:49 10° S 18:21:28 45° ESE 18:23:19 31° ENE
Cosmos 405 3.9 18:19:38 10° NNW 18:23:04 50° W 18:26:28 10° S
ARGOS 3.1 18:23:02 10° SSE 18:28:18 62° ENE 18:33:37 10° N
DMSP B5D1-3 4.4 18:24:26 10° NNE 18:29:32 66° ESE 18:34:36 10° S
Cosmos 1869 4.0 18:27:36 10° N 18:30:11 34° NNE 18:30:11 34° NNE
PSLV R/B 4.1 18:29:52 10° N 18:34:05 74° WNW 18:38:16 10° SSW
Cosmos 372 Rocket 4.1 18:29:41 10° SSW 18:34:54 78° WNW 18:39:58 11° NNE
SAR-Lupe-1 4.3 18:34:04 17° N 18:36:46 70° WNW 18:40:20 10° SSW
CZ-4B R/B 3.9 18:34:58 10° NNW 18:37:32 21° WNW 18:40:02 10° WSW
Cosmos 468 4.5 18:33:24 10° NNW 18:38:36 59° ENE 18:41:13 29° SE
CZ-2C R/B 2.8 18:33:46 10° NNE 18:39:13 51° E 18:44:41 10° S
Cosmos 494 Rocket 4.2 18:37:35 10° N 18:42:29 44° ENE 18:42:29 44° ENE
Cosmos 2150 Rocket 3.9 18:39:01 10° S 18:44:06 64° ESE 18:45:58 38° NE
TRAILBLAZER 4.5 18:40:47 10° NNW 18:45:26 78° NE 18:46:35 50° SE
Cosmos 1048 Rocket 3.8 18:42:27 10° NNW 18:47:36 69° ENE 18:49:36 37° SE
Cosmos-2242 4.1 18:43:36 10° NNW 18:47:43 45° W 18:51:50 10° SSW
Cosmos 2297 4.0 18:46:32 10° S 18:51:23 43° ESE 18:51:23 43° ESE
SL-08 RB Rocket 3.5 18:59:18 63° SSE 19:00:02 86° E 19:04:33 10° NNW
CSL-04 Debris 4.4 18:56:49 10° S 19:02:11 70° WSW 19:07:35 10° NNW
Helios 1A Rocket 4.0 19:01:10 10° S 19:05:08 44° W 19:09:07 10° NNW
H-2A R/B 3.2 19:02:06 10° S 19:06:53 43° W 19:11:50 10° NNW
Cosmos 1125 Rocket 3.3 19:03:34 10° SSW 19:08:41 78° ESE 19:08:41 78° ESE
Cosmos 1809 Rocket 4.4 19:03:02 10° S 19:09:09 88° WNW 19:15:21 10° N
Cosmos 1833 Rocket 4.2 19:04:30 10° NW 19:09:33 35° WSW 19:14:35 10° S
Cosmos 2298 Rocket 4.2 19:06:10 10° SSW 19:11:27 70° WNW 19:13:35 37° N
Cosmos 2266 Rocket 3.8 19:07:04 10° S 19:13:19 89° E 19:19:29 10° N
NOSS 2-2 (C) 4.4 19:14:52 10° NNW 19:20:07 65° NE 19:20:07 65° NE
X-37B 3.7 19:23:01 10° W 19:23:54 16° WSW 19:23:54 16° WSW
Cosmos 1943 Rocket 4.0 19:21:52 10° S 19:23:18 18° S 19:23:18 18° S
ISS -0.6 19:26:24 10° NW 19:26:49 13° NW 19:26:49 13° NW
Cosmos 2082 Rocket 3.2 19:24:15 10° NW 19:29:41 45° WSW 19:33:42 17° S
Cosmos 2315 Rocket 4.1 19:40:54 10° NNW 19:46:33 68° NW 19:46:33 68° NW
ATLAS 2AS CENTAUR R/B 4.4 19:43:31 10° NNW 19:48:21 22° N 19:48:21 22° N
USA 234 4.2 19:53:13 36° N 19:53:13 36° N 19:58:07 10° NW
Cosmos 2278 Rocket 4.4 19:51:53 10° W 19:56:00 20° NW 19:59:05 14° N
CZ-4C R/B 4.3 19:53:40 10° NNW 19:56:58 22° N 19:56:58 22° N
ATLAS 5 CENTAUR R/B 4.5 20:21:16 10° SW 20:39:15 58° SW 20:39:15 58° SW
